THORAD AGENA D DEB, 42508

Orbit data source: Space-Track

THORAD AGENA D DEB, 42508 is space debris in SSO originally from a launch on Wed, 08 Apr 1970 UTC launched from the Air Force Western Test Range (AFWTR). Debris objects in space refer to the collection of defunct objects orbiting the Earth. Examples of debris include non-operational satellites, rocket bodies, and fragments generated from explosions, collisions, or faulty payload assembly.

Loading next visibility...
Identifier
42508, 1970-025RN
Orbit
SSO
Country
Flag of USUS
Related business
Manufacturer
Unknown
Mission
Spacecraft
Bus & Motor
Unknown
Mass
Unknown
Launch date (UTC)
1970-04-08 (55 years ago)
Launch vehicle
Unknown
Launch site
Air Force Western Test Range (AFWTR)
Object type
Payload
Rocket body
Debris
Shape & HBR
Unknown
Radar Cross Section
Small (<0.1 m²)

Expand to show TLE details & history
Last TLE update: 3 days ago

TLE from 3 days ago
0 THORAD AGENA D DEB
1 42508U 70025RN  25258.85596617  .00000453  00000-0  36780-3 0  9991
2 42508  99.8444 109.6787 0121929 348.0128  11.8135 13.92470531138058
Epoch: 2025-09-15T20:32Z
TLE epoch observation values (Epoch: 2025-09-15T20:32:35.477Z)
Latitude
0.00007°
Longitude
166.47624°
Altitude
835.754 km
Speed
7.479 km/s
True Right ascension
07h 18m 42s
True Declination
0° 00' 00"
Sunlit
Object was in daylight at epoch
Visualization orbit readout
Latitude
Unknown
Longitude
Unknown
Altitude
Unknown
Speed
Unknown
Apparent Right ascension
Unknown
Apparent Declination
Unknown
Sunlit
N/A
Visualization observer readout
Local Sidereal Time
19:59:31
Azimuth
Unknown
Elevation
Unknown
Doppler factor
Unknown
Orbital elements
Apogee altitude
1,006.189 km
Perigee altitude
828.286 km
Semi-major axis
7,295.375 km
Eccentricity
0.01219
Inclination
99.8444°
RAAN
109.6787°
Arg. of periapsis
348.0128°
True anomaly
12.10387°
Mean anomaly
11.8135°
Eccentric anomaly
11.95825°
Mean motion
3.48315 °/min
Orbital period
103.35 mins
BSTAR
0.0003678
Loading maneuver chart data...
Computing Atmospheric mass density...

Documentation

Showing up to 5 results
|